Time,TemperatureF,DewpointF,PressureIn,WindDirection,WindDirectionDegrees,WindSpeedMPH,WindSpeedGustMPH,Humidity,HourlyPrecipIn,Conditions,Clouds,dailyrainin,SoftwareType,DateUTC
2013-06-19 00:02:00,68.0,-99.9,-100.00,North,0,3.0,-999.0,-999,-99.99,,,-99.99,,2013-06-19 04:02:00,
2013-06-19 00:12:00,67.0,-99.9,-100.00,NNE,25,1.0,-999.0,-999,-99.99,,,-99.99,,2013-06-19 04:12:00,
2013-06-19 00:23:00,67.0,-99.9,-100.00,NNE,25,1.0,-999.0,-999,-99.99,,,-99.99,,2013-06-19 04:23:00,
2013-06-19 00:33:00,67.0,-99.9,-100.00,NNE,25,1.0,-999.0,-999,-99.99,,,-99.99,,2013-06-19 04:33:00,
2013-06-19 00:43:00,67.0,-99.9,-100.00,NNE,25,1.0,-999.0,-999,-99.99,,,-99.99,,2013-06-19 04:43:00,
2013-06-19 01:11:00,66.0,-99.9,-100.00,North,10,0.0,-999.0,-999,-99.99,,,-99.99,,2013-06-19 05:11:00,
2013-06-19 01:23:00,66.0,-99.9,-100.00,North,10,0.0,-999.0,-999,-99.99,,,-99.99,,2013-06-19 05:23:00,
2013-06-19 01:33:00,64.0,-99.9,-100.00,East,98,5.0,-999.0,-999,-99.99,,,-99.99,,2013-06-19 05:33:00,
2013-06-19 01:43:00,64.0,-99.9,-100.00,East,98,5.0,-999.0,-999,-99.99,,,-99.99,,2013-06-19 05:43:00,
2013-06-19 01:52:00,64.0,-99.9,-100.00,East,89,0.0,-999.0,-999,-99.99,,,-99.99,,2013-06-19 05:52:00,
2013-06-19 02:02:00,64.0,-99.9,-100.00,East,89,0.0,-999.0,-999,-99.99,,,-99.99,,2013-06-19 06:02:00,
2013-06-19 02:12:00,63.0,-99.9,-100.00,East,93,0.0,-999.0,-999,-99.99,,,-99.99,,2013-06-19 06:12:00,
2013-06-19 02:22:00,63.0,-99.9,-100.00,ENE,76,2.0,-999.0,-999,-99.99,,,-99.99,,2013-06-19 06:22:00,
2013-06-19 02:34:00,63.0,-99.9,-100.00,ENE,76,2.0,-999.0,-999,-99.99,,,-99.99,,2013-06-19 06:34:00,
2013-06-19 02:43:00,62.0,-99.9,-100.00,North,6,0.0,-999.0,-999,-99.99,,,-99.99,,2013-06-19 06:43:00,
2013-06-19 02:52:00,62.0,-99.9,-100.00,NNE,31,3.0,-999.0,-999,-99.99,,,-99.99,,2013-06-19 06:52:00,
2013-06-19 03:02:00,62.0,-99.9,-100.00,NNE,31,3.0,-999.0,-999,-99.99,,,-99.99,,2013-06-19 07:02:00,
2013-06-19 03:12:00,61.0,-99.9,-100.00,NE,52,0.0,-999.0,-999,-99.99,,,-99.99,,2013-06-19 07:12:00,
2013-06-19 03:23:00,61.0,-99.9,-100.00,NNE,23,0.0,-999.0,-999,-99.99,,,-99.99,,2013-06-19 07:23:00,
2013-06-19 03:33:00,60.0,-99.9,-100.00,ENE,78,0.0,-999.0,-999,-99.99,,,-99.99,,2013-06-19 07:33:00,
2013-06-19 03:44:00,60.0,-99.9,-100.00,ENE,78,0.0,-999.0,-999,-99.99,,,-99.99,,2013-06-19 07:44:00,
2013-06-19 03:54:00,60.0,-99.9,-100.00,ENE,78,0.0,-999.0,-999,-99.99,,,-99.99,,2013-06-19 07:54:00,
2013-06-19 04:02:00,60.0,-99.9,-100.00,NE,41,2.0,-999.0,-999,-99.99,,,-99.99,,2013-06-19 08:02:00,
2013-06-19 04:11:00,60.0,-99.9,-100.00,NE,41,2.0,-999.0,-999,-99.99,,,-99.99,,2013-06-19 08:11:00,
2013-06-19 04:22:00,60.0,-99.9,-100.00,North,9,2.0,-999.0,-999,-99.99,,,-99.99,,2013-06-19 08:22:00,
2013-06-19 04:34:00,60.0,-99.9,-100.00,North,9,2.0,-999.0,-999,-99.99,,,-99.99,,2013-06-19 08:34:00,
2013-06-19 04:43:00,60.0,-99.9,-100.00,NE,47,1.0,-999.0,-999,-99.99,,,-99.99,,2013-06-19 08:43:00,
2013-06-19 04:54:00,59.0,-99.9,-100.00,East,87,0.0,-999.0,-999,-99.99,,,-99.99,,2013-06-19 08:54:00,
2013-06-19 05:02:00,59.0,-99.9,-100.00,East,87,0.0,-999.0,-999,-99.99,,,-99.99,,2013-06-19 09:02:00,
2013-06-19 05:12:00,59.0,-99.9,-100.00,ENE,69,2.0,-999.0,-999,-99.99,,,-99.99,,2013-06-19 09:12:00,
2013-06-19 05:22:00,58.0,-99.9,-100.00,NE,43,2.0,-999.0,-999,-99.99,,,-99.99,,2013-06-19 09:22:00,
2013-06-19 05:34:00,58.0,-99.9,-100.00,NE,43,2.0,-999.0,-999,-99.99,,,-99.99,,2013-06-19 09:34:00,
2013-06-19 05:44:00,57.0,-99.9,-100.00,NE,43,0.0,-999.0,-999,-99.99,,,-99.99,,2013-06-19 09:44:00,
2013-06-19 05:53:00,57.0,-99.9,-100.00,NE,43,0.0,-999.0,-999,-99.99,,,-99.99,,2013-06-19 09:53:00,
2013-06-19 06:02:00,57.0,-99.9,-100.00,NE,43,0.0,-999.0,-999,-99.99,,,-99.99,,2013-06-19 10:02:00,
2013-06-19 06:12:00,57.0,-99.9,-100.00,NE,43,0.0,-999.0,-999,-99.99,,,-99.99,,2013-06-19 10:12:00,
2013-06-19 06:22:00,57.0,-99.9,-100.00,NE,43,0.0,-999.0,-999,-99.99,,,-99.99,,2013-06-19 10:22:00,
2013-06-19 06:33:00,56.0,-99.9,-100.00,NE,43,0.0,-999.0,-999,-99.99,,,-99.99,,2013-06-19 10:33:00,
2013-06-19 06:43:00,56.0,-99.9,-100.00,NE,43,0.0,-999.0,-999,-99.99,,,-99.99,,2013-06-19 10:43:00,
2013-06-19 06:53:00,56.0,-99.9,-100.00,NE,43,0.0,-999.0,-999,-99.99,,,-99.99,,2013-06-19 10:53:00,
2013-06-19 07:02:00,56.0,-99.9,-100.00,NE,43,0.0,-999.0,-999,-99.99,,,-99.99,,2013-06-19 11:02:00,
2013-06-19 07:12:00,56.0,-99.9,-100.00,NE,43,0.0,-999.0,-999,-99.99,,,-99.99,,2013-06-19 11:12:00,
2013-06-19 07:22:00,57.0,-99.9,-100.00,NE,39,4.0,-999.0,-999,-99.99,,,-99.99,,2013-06-19 11:22:00,
2013-06-19 07:33:00,57.0,-99.9,-100.00,North,7,1.0,-999.0,-999,-99.99,,,-99.99,,2013-06-19 11:33:00,
2013-06-19 07:43:00,57.0,-99.9,-100.00,North,7,1.0,-999.0,-999,-99.99,,,-99.99,,2013-06-19 11:43:00,
2013-06-19 07:54:00,58.0,-99.9,-100.00,NNE,12,3.0,-999.0,-999,-99.99,,,-99.99,,2013-06-19 11:54:00,
2013-06-19 08:02:00,59.0,-99.9,-100.00,North,5,2.0,-999.0,-999,-99.99,,,-99.99,,2013-06-19 12:02:00,
2013-06-19 08:12:00,59.0,-99.9,-100.00,North,5,2.0,-999.0,-999,-99.99,,,-99.99,,2013-06-19 12:12:00,
2013-06-19 08:22:00,59.0,-99.9,-100.00,NNE,19,2.0,-999.0,-999,-99.99,,,-99.99,,2013-06-19 12:22:00,
2013-06-19 08:34:00,59.0,-99.9,-100.00,NNE,19,2.0,-999.0,-999,-99.99,,,-99.99,,2013-06-19 12:34:00,
2013-06-19 08:44:00,60.0,-99.9,-100.00,ENE,76,1.0,-999.0,-999,-99.99,,,-99.99,,2013-06-19 12:44:00,
2013-06-19 08:53:00,62.0,-99.9,-100.00,East,89,2.0,-999.0,-999,-99.99,,,-99.99,,2013-06-19 12:53:00,
2013-06-19 09:02:00,62.0,-99.9,-100.00,East,89,2.0,-999.0,-999,-99.99,,,-99.99,,2013-06-19 13:02:00,
2013-06-19 09:12:00,62.0,-99.9,-100.00,ENE,77,2.0,-999.0,-999,-99.99,,,-99.99,,2013-06-19 13:12:00,
2013-06-19 09:22:00,63.0,-99.9,-100.00,North,9,0.0,-999.0,-999,-99.99,,,-99.99,,2013-06-19 13:22:00,
2013-06-19 09:33:00,63.0,-99.9,-100.00,North,9,0.0,-999.0,-999,-99.99,,,-99.99,,2013-06-19 13:33:00,
2013-06-19 09:43:00,63.0,-99.9,-100.00,ENE,74,2.0,-999.0,-999,-99.99,,,-99.99,,2013-06-19 13:43:00,
2013-06-19 09:54:00,65.0,-99.9,-100.00,ESE,102,5.0,-999.0,-999,-99.99,,,-99.99,,2013-06-19 13:54:00,
2013-06-19 10:02:00,65.0,-99.9,-100.00,ESE,102,5.0,-999.0,-999,-99.99,,,-99.99,,2013-06-19 14:02:00,
2013-06-19 10:12:00,65.0,-99.9,-100.00,NE,38,4.0,-999.0,-999,-99.99,,,-99.99,,2013-06-19 14:12:00,
2013-06-19 10:23:00,67.0,-99.9,-100.00,ESE,109,1.0,-999.0,-999,-99.99,,,-99.99,,2013-06-19 14:23:00,
2013-06-19 10:34:00,67.0,-99.9,-100.00,ESE,109,1.0,-999.0,-999,-99.99,,,-99.99,,2013-06-19 14:34:00,
2013-06-19 10:44:00,68.0,-99.9,-100.00,ENE,62,2.0,-999.0,-999,-99.99,,,-99.99,,2013-06-19 14:44:00,
2013-06-19 10:53:00,67.0,-99.9,-100.00,North,2,3.0,-999.0,-999,-99.99,,,-99.99,,2013-06-19 14:53:00,
2013-06-19 11:02:00,69.0,-99.9,-100.00,ENE,58,0.0,-999.0,-999,-99.99,,,-99.99,,2013-06-19 15:02:00,
2013-06-19 11:11:00,69.0,-99.9,-100.00,ENE,58,0.0,-999.0,-999,-99.99,,,-99.99,,2013-06-19 15:11:00,
2013-06-19 11:22:00,72.0,-99.9,-100.00,East,100,1.0,-999.0,-999,-99.99,,,-99.99,,2013-06-19 15:22:00,
2013-06-19 11:33:00,72.0,-99.9,-100.00,East,100,1.0,-999.0,-999,-99.99,,,-99.99,,2013-06-19 15:33:00,
2013-06-19 11:43:00,71.0,-99.9,-100.00,East,92,4.0,-999.0,-999,-99.99,,,-99.99,,2013-06-19 15:43:00,
2013-06-19 11:53:00,73.0,-99.9,-100.00,ENE,72,5.0,-999.0,-999,-99.99,,,-99.99,,2013-06-19 15:53:00,
2013-06-19 12:02:00,73.0,-99.9,-100.00,ENE,72,5.0,-999.0,-999,-99.99,,,-99.99,,2013-06-19 16:02:00,
2013-06-19 12:11:00,73.0,-99.9,-100.00,ESE,114,2.0,-999.0,-999,-99.99,,,-99.99,,2013-06-19 16:11:00,
2013-06-19 12:22:00,72.0,-99.9,-100.00,North,3,6.0,-999.0,-999,-99.99,,,-99.99,,2013-06-19 16:22:00,
2013-06-19 12:34:00,72.0,-99.9,-100.00,North,3,6.0,-999.0,-999,-99.99,,,-99.99,,2013-06-19 16:34:00,
2013-06-19 12:44:00,72.0,-99.9,-100.00,North,6,3.0,-999.0,-999,-99.99,,,-99.99,,2013-06-19 16:44:00,
2013-06-19 12:53:00,75.0,-99.9,-100.00,ENE,65,0.0,-999.0,-999,-99.99,,,-99.99,,2013-06-19 16:53:00,
2013-06-19 13:02:00,75.0,-99.9,-100.00,ENE,65,0.0,-999.0,-999,-99.99,,,-99.99,,2013-06-19 17:02:00,
2013-06-19 13:12:00,76.0,-99.9,-100.00,ENE,65,1.0,-999.0,-999,-99.99,,,-99.99,,2013-06-19 17:12:00,
2013-06-19 13:22:00,74.0,-99.9,-100.00,ENE,73,2.0,-999.0,-999,-99.99,,,-99.99,,2013-06-19 17:22:00,
2013-06-19 13:34:00,74.0,-99.9,-100.00,ENE,73,2.0,-999.0,-999,-99.99,,,-99.99,,2013-06-19 17:34:00,
2013-06-19 13:43:00,77.0,-99.9,-100.00,ESE,106,1.0,-999.0,-999,-99.99,,,-99.99,,2013-06-19 17:43:00,
2013-06-19 13:53:00,76.0,-99.9,-100.00,East,95,0.0,-999.0,-999,-99.99,,,-99.99,,2013-06-19 17:53:00,
2013-06-19 14:02:00,76.0,-99.9,-100.00,East,95,0.0,-999.0,-999,-99.99,,,-99.99,,2013-06-19 18:02:00,
2013-06-19 14:12:00,76.0,-99.9,-100.00,ENE,75,0.0,-999.0,-999,-99.99,,,-99.99,,2013-06-19 18:12:00,
2013-06-19 14:24:00,76.0,-99.9,-100.00,ENE,60,0.0,-999.0,-999,-99.99,,,-99.99,,2013-06-19 18:24:00,
2013-06-19 14:33:00,76.0,-99.9,-100.00,ENE,60,0.0,-999.0,-999,-99.99,,,-99.99,,2013-06-19 18:33:00,
2013-06-19 14:44:00,77.0,-99.9,-100.00,ESE,120,1.0,-999.0,-999,-99.99,,,-99.99,,2013-06-19 18:44:00,
2013-06-19 14:53:00,76.0,-99.9,-100.00,North,11,0.0,-999.0,-999,-99.99,,,-99.99,,2013-06-19 18:53:00,
2013-06-19 15:02:00,76.0,-99.9,-100.00,North,11,0.0,-999.0,-999,-99.99,,,-99.99,,2013-06-19 19:02:00,
2013-06-19 15:12:00,78.0,-99.9,-100.00,NNE,23,0.0,-999.0,-999,-99.99,,,-99.99,,2013-06-19 19:12:00,
2013-06-19 15:22:00,79.0,-99.9,-100.00,SE,143,0.0,-999.0,-999,-99.99,,,-99.99,,2013-06-19 19:22:00,
2013-06-19 15:33:00,79.0,-99.9,-100.00,SE,143,0.0,-999.0,-999,-99.99,,,-99.99,,2013-06-19 19:33:00,
2013-06-19 15:44:00,79.0,-99.9,-100.00,ENE,71,0.0,-999.0,-999,-99.99,,,-99.99,,2013-06-19 19:44:00,
2013-06-19 15:53:00,76.0,-99.9,-100.00,NNE,28,1.0,-999.0,-999,-99.99,,,-99.99,,2013-06-19 19:53:00,
2013-06-19 16:02:00,76.0,-99.9,-100.00,NNE,28,1.0,-999.0,-999,-99.99,,,-99.99,,2013-06-19 20:02:00,
2013-06-19 16:12:00,76.0,-99.9,-100.00,NNE,17,1.0,-999.0,-999,-99.99,,,-99.99,,2013-06-19 20:12:00,
2013-06-19 16:22:00,76.0,-99.9,-100.00,NNE,24,3.0,-999.0,-999,-99.99,,,-99.99,,2013-06-19 20:22:00,
2013-06-19 16:34:00,76.0,-99.9,-100.00,NNE,24,3.0,-999.0,-999,-99.99,,,-99.99,,2013-06-19 20:34:00,
2013-06-19 16:43:00,77.0,-99.9,-100.00,East,89,0.0,-999.0,-999,-99.99,,,-99.99,,2013-06-19 20:43:00,
2013-06-19 16:52:00,77.0,-99.9,-100.00,ENE,67,0.0,-999.0,-999,-99.99,,,-99.99,,2013-06-19 20:52:00,
2013-06-19 17:02:00,77.0,-99.9,-100.00,ENE,67,0.0,-999.0,-999,-99.99,,,-99.99,,2013-06-19 21:02:00,
2013-06-19 17:12:00,76.0,-99.9,-100.00,North,10,1.0,-999.0,-999,-99.99,,,-99.99,,2013-06-19 21:12:00,
2013-06-19 17:22:00,75.0,-99.9,-100.00,East,86,0.0,-999.0,-999,-99.99,,,-99.99,,2013-06-19 21:22:00,
2013-06-19 17:33:00,75.0,-99.9,-100.00,East,86,0.0,-999.0,-999,-99.99,,,-99.99,,2013-06-19 21:33:00,
2013-06-19 17:44:00,76.0,-99.9,-100.00,North,0,2.0,-999.0,-999,-99.99,,,-99.99,,2013-06-19 21:44:00,
2013-06-19 17:52:00,76.0,-99.9,-100.00,NNE,32,0.0,-999.0,-999,-99.99,,,-99.99,,2013-06-19 21:52:00,
2013-06-19 18:02:00,76.0,-99.9,-100.00,NNE,32,0.0,-999.0,-999,-99.99,,,-99.99,,2013-06-19 22:02:00,
2013-06-19 18:12:00,77.0,-99.9,-100.00,East,83,0.0,-999.0,-999,-99.99,,,-99.99,,2013-06-19 22:12:00,
2013-06-19 18:22:00,77.0,-99.9,-100.00,East,88,2.0,-999.0,-999,-99.99,,,-99.99,,2013-06-19 22:22:00,
2013-06-19 18:34:00,77.0,-99.9,-100.00,East,88,2.0,-999.0,-999,-99.99,,,-99.99,,2013-06-19 22:34:00,
2013-06-19 18:43:00,77.0,-99.9,-100.00,East,84,0.0,-999.0,-999,-99.99,,,-99.99,,2013-06-19 22:43:00,
2013-06-19 18:54:00,76.0,-99.9,-100.00,North,5,1.0,-999.0,-999,-99.99,,,-99.99,,2013-06-19 22:54:00,
2013-06-19 19:02:00,76.0,-99.9,-100.00,North,5,1.0,-999.0,-999,-99.99,,,-99.99,,2013-06-19 23:02:00,
2013-06-19 19:12:00,76.0,-99.9,-100.00,East,81,1.0,-999.0,-999,-99.99,,,-99.99,,2013-06-19 23:12:00,
2013-06-19 19:23:00,76.0,-99.9,-100.00,ESE,113,0.0,-999.0,-999,-99.99,,,-99.99,,2013-06-19 23:23:00,
2013-06-19 19:34:00,76.0,-99.9,-100.00,ESE,113,0.0,-999.0,-999,-99.99,,,-99.99,,2013-06-19 23:34:00,
2013-06-19 19:43:00,76.0,-99.9,-100.00,North,10,0.0,-999.0,-999,-99.99,,,-99.99,,2013-06-19 23:43:00,
2013-06-19 19:52:00,75.0,-99.9,-100.00,NE,46,0.0,-999.0,-999,-99.99,,,-99.99,,2013-06-19 23:52:00,
2013-06-19 20:02:00,75.0,-99.9,-100.00,NE,34,0.0,-999.0,-999,-99.99,,,-99.99,,2013-06-20 00:02:00,
2013-06-19 20:12:00,75.0,-99.9,-100.00,NE,34,0.0,-999.0,-999,-99.99,,,-99.99,,2013-06-20 00:12:00,
2013-06-19 20:22:00,75.0,-99.9,-100.00,NE,35,2.0,-999.0,-999,-99.99,,,-99.99,,2013-06-20 00:22:00,
2013-06-19 20:34:00,74.0,-99.9,-100.00,NE,35,0.0,-999.0,-999,-99.99,,,-99.99,,2013-06-20 00:34:00,
2013-06-19 20:44:00,74.0,-99.9,-100.00,NE,35,0.0,-999.0,-999,-99.99,,,-99.99,,2013-06-20 00:44:00,
2013-06-19 20:52:00,74.0,-99.9,-100.00,NE,35,0.0,-999.0,-999,-99.99,,,-99.99,,2013-06-20 00:52:00,
2013-06-19 21:02:00,73.0,-99.9,-100.00,NE,35,0.0,-999.0,-999,-99.99,,,-99.99,,2013-06-20 01:02:00,
2013-06-19 21:12:00,73.0,-99.9,-100.00,NE,35,0.0,-999.0,-999,-99.99,,,-99.99,,2013-06-20 01:12:00,
2013-06-19 21:22:00,72.0,-99.9,-100.00,NE,35,0.0,-999.0,-999,-99.99,,,-99.99,,2013-06-20 01:22:00,
2013-06-19 21:34:00,72.0,-99.9,-100.00,NE,35,0.0,-999.0,-999,-99.99,,,-99.99,,2013-06-20 01:34:00,
2013-06-19 21:44:00,72.0,-99.9,-100.00,NE,35,0.0,-999.0,-999,-99.99,,,-99.99,,2013-06-20 01:44:00,
2013-06-19 21:53:00,70.0,-99.9,-100.00,NE,35,0.0,-999.0,-999,-99.99,,,-99.99,,2013-06-20 01:53:00,
2013-06-19 22:02:00,70.0,-99.9,-100.00,NE,35,0.0,-999.0,-999,-99.99,,,-99.99,,2013-06-20 02:02:00,
2013-06-19 22:12:00,70.0,-99.9,-100.00,NE,35,0.0,-999.0,-999,-99.99,,,-99.99,,2013-06-20 02:12:00,
2013-06-19 22:24:00,69.0,-99.9,-100.00,NE,35,0.0,-999.0,-999,-99.99,,,-99.99,,2013-06-20 02:24:00,
2013-06-19 22:34:00,69.0,-99.9,-100.00,NE,35,0.0,-999.0,-999,-99.99,,,-99.99,,2013-06-20 02:34:00,
2013-06-19 22:43:00,68.0,-99.9,-100.00,NE,35,0.0,-999.0,-999,-99.99,,,-99.99,,2013-06-20 02:43:00,
2013-06-19 22:53:00,68.0,-99.9,-100.00,NE,35,0.0,-999.0,-999,-99.99,,,-99.99,,2013-06-20 02:53:00,
2013-06-19 23:02:00,67.0,-99.9,-100.00,NE,35,0.0,-999.0,-999,-99.99,,,-99.99,,2013-06-20 03:02:00,
2013-06-19 23:12:00,67.0,-99.9,-100.00,NE,35,0.0,-999.0,-999,-99.99,,,-99.99,,2013-06-20 03:12:00,
2013-06-19 23:22:00,67.0,-99.9,-100.00,NE,35,0.0,-999.0,-999,-99.99,,,-99.99,,2013-06-20 03:22:00,
2013-06-19 23:33:00,66.0,-99.9,-100.00,NE,35,0.0,-999.0,-999,-99.99,,,-99.99,,2013-06-20 03:33:00,
2013-06-19 23:43:00,66.0,-99.9,-100.00,NE,35,0.0,-999.0,-999,-99.99,,,-99.99,,2013-06-20 03:43:00,
2013-06-19 23:54:00,66.0,-99.9,-100.00,NE,35,0.0,-999.0,-999,-99.99,,,-99.99,,2013-06-20 03:54:00,